Location: Alt?nova Orta
(36.9295°N, 30.7847°E)
Time: 10:45:35
(UTC+00:00)

STARLINK-1070 - Pass Details

Date: 17 February 2020
Orbit: 379 x 380 km, 53.0° (Epoch: 09 April)

Event Time Altitude Azimuth Distance (km) Brightness Sun altitude
Exits shadow 03:42:55 24° 274° (W) 839 3.9 -12.8°
Maximum altitude 03:44:12 36° 322° (NW) 634 3.6 -12.6°
Drops below altitude 10° 03:47:08 10° 31° (NNE) 1,410 6.0 -12.0°
Sets 03:49:18 0° 41° (NE) 2,267 7.3 -11.6°
